When you browse on this site, cookies collect data to enhance your experience and personalize the content and advertising you see.
Visit our Privacy Policy to learn more. By continuing to use the site, you agree to this use of cookies and data.
  • In Austria
  • List of Countries
  • For 7 days
  • Water Temperature
  • Weather Map
  • News
  • Weather Widgets
  • user-avatar
    Login

    Hourly Weather San Cristóbal

    Today, 25 January, Saturday

    Time Temperature Precipitation Wind Pressure Humidity
    00:00 +21°C° 0 mm 1 mps 672 mmHg 92%
    01:00 +20°C° 0 mm 1 mps 672 mmHg 93%
    02:00 +20°C° 0.1 mm 1 mps 671 mmHg 93%
    03:00 +20°C° 0.1 mm 1 mps 671 mmHg 92%
    04:00 +20°C° 0.1 mm 1 mps 671 mmHg 92%
    05:00 +20°C° 0 mm 1 mps 672 mmHg 90%
    06:00 +21°C° 0 mm 1 mps 672 mmHg 89%
    07:00 +21°C° 0 mm 1 mps 673 mmHg 87%
    08:00 +23°C° 0.1 mm 1 mps 674 mmHg 81%
    09:00 +25°C° 0.1 mm 1 mps 674 mmHg 75%
    10:00 +26°C° 0.1 mm 1 mps 675 mmHg 69%
    11:00 +27°C° 0.2 mm 1 mps 674 mmHg 68%
    12:00 +27°C° 0.2 mm 1 mps 673 mmHg 68%
    13:00 +27°C° 0.2 mm 1 mps 673 mmHg 67%
    14:00 +27°C° 0.2 mm 1 mps 672 mmHg 71%
    15:00 +26°C° 0.2 mm 1 mps 671 mmHg 75%
    16:00 +25°C° 0.2 mm 1 mps 671 mmHg 79%
    17:00 +24°C° 0.2 mm 1 mps 671 mmHg 83%
    18:00 +23°C° 0.2 mm 1 mps 671 mmHg 88%
    19:00 +22°C° 0.2 mm 1 mps 671 mmHg 92%
    20:00 +22°C° 0.1 mm 1 mps 672 mmHg 92%
    21:00 +21°C° 0.1 mm 1 mps 672 mmHg 92%
    22:00 +21°C° 0.1 mm 1 mps 673 mmHg 92%
    23:00 +21°C° 0.1 mm 1 mps 672 mmHg 92%

    Tomorrow, 26 January, Sunday

    Time Temperature Precipitation Wind Pressure Humidity
    00:00 +21°C° 0.1 mm 1 mps 672 mmHg 91%
    01:00 +21°C° 0.1 mm 1 mps 672 mmHg 91%
    02:00 +19°C° 0.1 mm 0 mps 672 mmHg 91%
    03:00 +19°C° 0.1 mm 0 mps 672 mmHg 91%
    04:00 +19°C° 0.1 mm 0 mps 671 mmHg 91%
    05:00 +19°C° 0.1 mm 0 mps 672 mmHg 91%
    06:00 +19°C° 0.1 mm 0 mps 672 mmHg 91%
    07:00 +19°C° 0.1 mm 0 mps 672 mmHg 92%
    08:00 +21°C° 0.2 mm 0 mps 673 mmHg 85%
    09:00 +24°C° 0.2 mm 1 mps 674 mmHg 78%
    10:00 +26°C° 0.2 mm 1 mps 675 mmHg 71%
    11:00 +26°C° 0.2 mm 1 mps 674 mmHg 68%
    12:00 +27°C° 0.2 mm 1 mps 674 mmHg 65%
    13:00 +27°C° 0.2 mm 1 mps 673 mmHg 62%
    14:00 +27°C° 0.2 mm 1 mps 672 mmHg 65%
    15:00 +26°C° 0.2 mm 1 mps 672 mmHg 69%
    16:00 +25°C° 0.2 mm 1 mps 671 mmHg 73%
    17:00 +24°C° 0.2 mm 1 mps 671 mmHg 79%
    18:00 +23°C° 0.2 mm 1 mps 671 mmHg 84%
    19:00 +20°C° 0.2 mm 0 mps 671 mmHg 90%
    20:00 +19°C° 0.1 mm 0 mps 672 mmHg 90%
    21:00 +21°C° 0.1 mm 1 mps 672 mmHg 91%
    22:00 +21°C° 0.1 mm 1 mps 672 mmHg 91%
    23:00 +21°C° 0.1 mm 1 mps 672 mmHg 91%

    Day after tomorrow, 27 January, Monday

    Time Temperature Precipitation Wind Pressure Humidity
    00:00 +21°C° 0.1 mm 1 mps 672 mmHg 91%
    01:00 +21°C° 0.1 mm 1 mps 672 mmHg 91%
    02:00 +21°C° 0.1 mm 1 mps 672 mmHg 91%
    03:00 +21°C° 0.1 mm 1 mps 671 mmHg 91%
    04:00 +21°C° 0.1 mm 1 mps 671 mmHg 91%
    05:00 +21°C° 0.1 mm 1 mps 672 mmHg 91%
    06:00 +19°C° 0.1 mm 0 mps 672 mmHg 90%
    07:00 +19°C° 0.1 mm 0 mps 673 mmHg 90%
    08:00 +21°C° 0.1 mm 0 mps 674 mmHg 82%
    09:00 +25°C° 0.1 mm 1 mps 674 mmHg 74%
    10:00 +26°C° 0.1 mm 1 mps 675 mmHg 66%
    11:00 +27°C° 0.1 mm 1 mps 675 mmHg 63%
    12:00 +28°C° 0.1 mm 1 mps 674 mmHg 60%
    13:00 +28°C° 0.1 mm 1 mps 674 mmHg 57%
    14:00 +28°C° 0.2 mm 1 mps 673 mmHg 61%
    15:00 +27°C° 0.2 mm 1 mps 672 mmHg 64%
    16:00 +27°C° 0.2 mm 1 mps 671 mmHg 67%
    17:00 +25°C° 0.2 mm 1 mps 671 mmHg 74%
    18:00 +24°C° 0.2 mm 1 mps 671 mmHg 82%
    19:00 +22°C° 0.2 mm 1 mps 672 mmHg 89%
    20:00 +22°C° 0 mm 1 mps 672 mmHg 89%
    21:00 +21°C° 0 mm 1 mps 672 mmHg 90%
    22:00 +21°C° 0 mm 1 mps 672 mmHg 90%
    23:00 +21°C° 0 mm 1 mps 672 mmHg 89%

    28 January, Tuesday

    Time Temperature Precipitation Wind Pressure Humidity
    00:00 +21°C° 0 mm 1 mps 672 mmHg 89%
    01:00 +21°C° 0 mm 1 mps 672 mmHg 88%
    02:00 +20°C° 0 mm 1 mps 671 mmHg 88%
    03:00 +20°C° 0 mm 1 mps 671 mmHg 88%
    04:00 +20°C° 0 mm 1 mps 671 mmHg 88%
    05:00 +20°C° 0 mm 1 mps 671 mmHg 86%
    06:00 +21°C° 0 mm 1 mps 672 mmHg 85%
    07:00 +21°C° 0 mm 1 mps 673 mmHg 83%
    08:00 +23°C° 0 mm 1 mps 673 mmHg 75%
    09:00 +26°C° 0 mm 1 mps 674 mmHg 66%
    10:00 +28°C° 0 mm 1 mps 675 mmHg 58%
    11:00 +28°C° 0.1 mm 1 mps 674 mmHg 58%
    12:00 +28°C° 0.1 mm 1 mps 673 mmHg 58%
    13:00 +28°C° 0.1 mm 1 mps 673 mmHg 58%
    14:00 +28°C° 0.3 mm 1 mps 672 mmHg 61%
    15:00 +27°C° 0.3 mm 1 mps 671 mmHg 64%
    16:00 +27°C° 0.3 mm 1 mps 671 mmHg 67%
    17:00 +25°C° 0.2 mm 1 mps 671 mmHg 75%
    18:00 +24°C° 0.2 mm 1 mps 671 mmHg 82%
    19:00 +22°C° 0.2 mm 1 mps 671 mmHg 90%
    20:00 +22°C° 0.1 mm 1 mps 671 mmHg 91%
    21:00 +21°C° 0.1 mm 1 mps 671 mmHg 91%
    22:00 +21°C° 0.1 mm 1 mps 672 mmHg 92%
    23:00 +21°C° 0.1 mm 1 mps 671 mmHg 91%

    29 January, Wednesday

    Time Temperature Precipitation Wind Pressure Humidity
    00:00 +21°C° 0.1 mm 1 mps 671 mmHg 91%
    01:00 +21°C° 0.1 mm 1 mps 671 mmHg 91%
    02:00 +20°C° 0 mm 1 mps 671 mmHg 90%
    03:00 +20°C° 0 mm 1 mps 671 mmHg 90%
    04:00 +20°C° 0 mm 1 mps 670 mmHg 90%
    05:00 +20°C° 0 mm 1 mps 671 mmHg 90%
    06:00 +21°C° 0 mm 1 mps 672 mmHg 89%
    07:00 +21°C° 0 mm 1 mps 672 mmHg 88%
    08:00 +23°C° 0.1 mm 1 mps 673 mmHg 79%
    09:00 +25°C° 0.1 mm 1 mps 674 mmHg 70%
    10:00 +28°C° 0.1 mm 1 mps 674 mmHg 61%
    11:00 +28°C° 0.2 mm 1 mps 674 mmHg 61%
    12:00 +28°C° 0.2 mm 1 mps 673 mmHg 61%
    13:00 +28°C° 0.2 mm 1 mps 672 mmHg 60%
    14:00 +27°C° 0.4 mm 1 mps 672 mmHg 65%
    15:00 +27°C° 0.4 mm 1 mps 671 mmHg 69%
    16:00 +26°C° 0.4 mm 1 mps 670 mmHg 74%
    17:00 +25°C° 0.4 mm 1 mps 671 mmHg 79%
    18:00 +23°C° 0.4 mm 1 mps 671 mmHg 85%
    19:00 +22°C° 0.4 mm 1 mps 671 mmHg 90%
    20:00 +22°C° 0.1 mm 1 mps 671 mmHg 90%
    21:00 +22°C° 0.1 mm 1 mps 671 mmHg 90%
    22:00 +21°C° 0.1 mm 1 mps 672 mmHg 90%
    23:00 +21°C° 0.1 mm 1 mps 672 mmHg 89%

    30 January, Thursday

    Time Temperature Precipitation Wind Pressure Humidity
    00:00 +21°C° 0.1 mm 1 mps 671 mmHg 89%
    01:00 +21°C° 0.1 mm 1 mps 671 mmHg 88%
    02:00 +21°C° 0 mm 1 mps 671 mmHg 88%
    03:00 +19°C° 0 mm 0 mps 671 mmHg 88%
    04:00 +18°C° 0 mm 0 mps 670 mmHg 89%
    05:00 +19°C° 0 mm 0 mps 671 mmHg 88%
    06:00 +19°C° 0 mm 0 mps 672 mmHg 87%
    07:00 +19°C° 0 mm 0 mps 672 mmHg 86%
    08:00 +23°C° 0.1 mm 1 mps 673 mmHg 79%
    09:00 +24°C° 0.1 mm 1 mps 673 mmHg 71%
    10:00 +26°C° 0.1 mm 1 mps 674 mmHg 64%
    11:00 +27°C° 0.1 mm 1 mps 674 mmHg 59%
    12:00 +28°C° 0.1 mm 2 mps 673 mmHg 55%
    13:00 +29°C° 0.1 mm 2 mps 673 mmHg 50%
    14:00 +29°C° 0.2 mm 2 mps 672 mmHg 53%
    15:00 +28°C° 0.2 mm 1 mps 671 mmHg 56%
    16:00 +28°C° 0.2 mm 1 mps 671 mmHg 59%
    17:00 +26°C° 0.2 mm 1 mps 671 mmHg 67%
    18:00 +24°C° 0.2 mm 1 mps 671 mmHg 76%
    19:00 +22°C° 0.2 mm 1 mps 671 mmHg 84%
    20:00 +21°C° 0 mm 1 mps 671 mmHg 83%
    21:00 +21°C° 0 mm 1 mps 671 mmHg 81%
    22:00 +21°C° 0 mm 1 mps 672 mmHg 80%
    23:00 +21°C° 0 mm 1 mps 671 mmHg 79%
    Show more